{"data":{"norad_id":58443,"epoch":"2026-09-20T08:51:11.214720Z","epoch_age_seconds":158095,"freshness":"FRESH","line1":"1 58443U 23183G   26263.36887980 -.00000417  00000+0 -56301-5 0  9992","line2":"2 58443  43.0040  22.5399 0001251 275.8113  84.2596 15.27572881156500","mean_motion":15.27572881,"eccentricity":0.0001251,"inclination_deg":43.004,"raan_deg":22.5399,"arg_perigee_deg":275.8113,"mean_anomaly_deg":84.2596,"bstar":-5.6301e-6,"rev_number":15650,"period_min":94.267188028196,"perigee_km":482.21207592212,"apogee_km":483.92875001685,"semimajor_km":6861.2074129695,"source":"CELESTRAK","updated_at":"2026-09-21T09:00:33.876370Z"}}